TimeCST,TemperatureF,Dew PointF,Humidity,Sea Level PressureIn,VisibilityMPH,Wind Direction,Wind SpeedMPH,Gust SpeedMPH,PrecipitationIn,Events,Conditions,WindDirDegrees,DateUTC
12:15 AM,46.6,34.5,63,30.28,10.0,NW,9.2,-,N/A,,Clear,310,2013-11-10 06:15:00
12:35 AM,45.9,34.2,64,30.29,10.0,NW,9.2,-,N/A,,Clear,310,2013-11-10 06:35:00
12:55 AM,45.5,34.3,65,30.29,10.0,NW,6.9,-,N/A,,Clear,310,2013-11-10 06:55:00
1:15 AM,44.6,34.2,67,30.30,10.0,NW,6.9,-,N/A,,Clear,320,2013-11-10 07:15:00
1:35 AM,43.2,34.0,70,30.30,10.0,WNW,4.6,-,N/A,,Clear,300,2013-11-10 07:35:00
1:55 AM,43.5,33.8,69,30.31,10.0,WNW,5.8,-,N/A,,Clear,300,2013-11-10 07:55:00
2:15 AM,42.8,33.3,69,30.31,10.0,NW,5.8,-,N/A,,Clear,310,2013-11-10 08:15:00
2:35 AM,41.7,33.4,72,30.32,10.0,WNW,3.5,-,N/A,,Clear,300,2013-11-10 08:35:00
2:55 AM,42.6,33.1,69,30.33,10.0,WNW,5.8,-,N/A,,Clear,300,2013-11-10 08:55:00
3:15 AM,42.3,32.5,68,30.32,10.0,WNW,5.8,-,N/A,,Clear,300,2013-11-10 09:15:00
3:35 AM,40.3,32.2,73,30.32,10.0,NW,4.6,-,N/A,,Clear,310,2013-11-10 09:35:00
3:55 AM,41.0,32.0,70,30.33,10.0,WNW,4.6,-,N/A,,Clear,290,2013-11-10 09:55:00
4:15 AM,40.8,32.0,71,30.34,10.0,WNW,4.6,-,N/A,,Clear,300,2013-11-10 10:15:00
4:35 AM,38.5,31.6,76,30.35,10.0,WNW,4.6,-,N/A,,Clear,300,2013-11-10 10:35:00
4:55 AM,36.9,30.9,79,30.35,10.0,WNW,4.6,-,N/A,,Clear,300,2013-11-10 10:55:00
5:15 AM,38.1,30.6,74,30.36,10.0,NW,4.6,-,N/A,,Clear,310,2013-11-10 11:15:00
5:35 AM,36.1,30.2,79,30.37,10.0,NW,5.8,-,N/A,,Clear,310,2013-11-10 11:35:00
5:55 AM,37.2,30.2,76,30.38,10.0,NW,4.6,-,N/A,,Clear,310,2013-11-10 11:55:00
6:15 AM,35.2,29.8,81,30.38,10.0,NW,6.9,-,N/A,,Clear,310,2013-11-10 12:15:00
6:35 AM,35.8,30.2,80,30.38,10.0,NW,9.2,-,N/A,,Clear,320,2013-11-10 12:35:00
6:55 AM,36.1,30.0,78,30.39,10.0,NNW,10.4,-,N/A,,Clear,340,2013-11-10 12:55:00
7:15 AM,36.7,30.2,77,30.40,10.0,NNW,10.4,-,N/A,,Clear,330,2013-11-10 13:15:00
7:35 AM,37.9,30.0,73,30.41,10.0,NNW,11.5,-,N/A,,Clear,340,2013-11-10 13:35:00
7:55 AM,39.0,30.2,71,30.42,10.0,North,9.2,-,N/A,,Clear,350,2013-11-10 13:55:00
8:15 AM,39.7,30.2,69,30.42,10.0,North,12.7,18.4,N/A,,Clear,350,2013-11-10 14:15:00
8:35 AM,40.3,30.2,67,30.43,10.0,North,11.5,-,N/A,,Clear,350,2013-11-10 14:35:00
8:55 AM,41.4,30.7,66,30.44,10.0,North,9.2,-,N/A,,Clear,360,2013-11-10 14:55:00
9:15 AM,41.5,30.2,64,30.44,10.0,North,10.4,-,N/A,,Clear,360,2013-11-10 15:15:00
9:35 AM,42.3,30.2,62,30.44,10.0,North,6.9,-,N/A,,Clear,360,2013-11-10 15:35:00
9:55 AM,43.2,29.7,59,30.44,10.0,North,9.2,-,N/A,,Clear,10,2013-11-10 15:55:00
10:15 AM,44.4,29.8,57,30.44,10.0,North,5.8,-,N/A,,Clear,350,2013-11-10 16:15:00
10:35 AM,45.0,30.2,56,30.44,10.0,NE,5.8,-,N/A,,Clear,50,2013-11-10 16:35:00
10:55 AM,45.9,29.8,54,30.43,10.0,North,4.6,-,N/A,,Clear,350,2013-11-10 16:55:00
11:15 AM,46.2,29.1,51,30.43,10.0,Calm,Calm,-,N/A,,Clear,0,2013-11-10 17:15:00
11:35 AM,47.5,29.8,50,30.42,7.0,ENE,4.6,-,N/A,,Clear,60,2013-11-10 17:35:00
11:55 AM,48.2,30.0,49,30.41,7.0,NNW,4.6,-,N/A,,Clear,340,2013-11-10 17:55:00
12:15 PM,48.9,30.6,49,30.40,10.0,Calm,Calm,-,N/A,,Clear,0,2013-11-10 18:15:00
12:35 PM,49.8,30.6,48,30.39,7.0,Calm,Calm,-,N/A,,Clear,0,2013-11-10 18:35:00
12:55 PM,50.7,30.6,46,30.38,10.0,Calm,Calm,-,N/A,,Clear,0,2013-11-10 18:55:00
1:15 PM,50.9,29.5,44,30.37,10.0,Calm,Calm,-,N/A,,Clear,0,2013-11-10 19:15:00
1:35 PM,51.3,29.8,44,30.37,10.0,SW,3.5,-,N/A,,Clear,230,2013-11-10 19:35:00
1:55 PM,51.4,28.8,42,30.37,10.0,Calm,Calm,-,N/A,,Clear,0,2013-11-10 19:55:00
2:15 PM,52.3,27.9,39,30.36,10.0,Calm,Calm,-,N/A,,Clear,0,2013-11-10 20:15:00
2:35 PM,52.9,28.2,39,30.35,10.0,Calm,Calm,-,N/A,,Clear,0,2013-11-10 20:35:00
2:55 PM,52.7,29.1,40,30.35,10.0,Calm,Calm,-,N/A,,Clear,0,2013-11-10 20:55:00
3:15 PM,51.8,28.6,41,30.34,10.0,Calm,Calm,-,N/A,,Scattered Clouds,0,2013-11-10 21:15:00
3:35 PM,52.9,28.6,39,30.34,10.0,South,3.5,-,N/A,,Overcast,190,2013-11-10 21:35:00
3:55 PM,53.6,28.9,39,30.34,10.0,SSW,4.6,-,N/A,,Overcast,210,2013-11-10 21:55:00
4:15 PM,51.3,30.7,45,30.33,10.0,SW,5.8,-,N/A,,Scattered Clouds,220,2013-11-10 22:15:00
4:35 PM,49.8,30.9,48,30.33,10.0,SW,3.5,-,N/A,,Clear,220,2013-11-10 22:35:00
4:55 PM,48.6,30.2,49,30.33,10.0,SW,3.5,-,N/A,,Clear,220,2013-11-10 22:55:00
5:15 PM,48.4,30.6,50,30.33,10.0,SW,3.5,-,N/A,,Clear,220,2013-11-10 23:15:00
5:35 PM,47.5,30.2,51,30.33,10.0,Calm,Calm,-,N/A,,Clear,0,2013-11-10 23:35:00
5:55 PM,47.5,30.2,51,30.33,10.0,Calm,Calm,-,N/A,,Clear,0,2013-11-10 23:55:00
6:15 PM,45.5,30.2,55,30.33,10.0,Calm,Calm,-,N/A,,Clear,0,2013-11-11 00:15:00
6:35 PM,44.6,30.2,57,30.33,10.0,Calm,Calm,-,N/A,,Clear,0,2013-11-11 00:35:00
6:55 PM,41.7,32.0,68,30.33,3.0,South,3.5,-,N/A,,Haze,180,2013-11-11 00:55:00
7:15 PM,40.1,32.2,73,30.32,2.5,South,3.5,-,N/A,,Haze,170,2013-11-11 01:15:00
7:35 PM,42.6,30.6,62,30.32,10.0,South,4.6,-,N/A,,Clear,170,2013-11-11 01:35:00
7:55 PM,41.7,30.6,65,30.32,10.0,Calm,Calm,-,N/A,,Clear,0,2013-11-11 01:55:00
8:15 PM,41.7,30.2,64,30.31,10.0,Calm,Calm,-,N/A,,Clear,0,2013-11-11 02:15:00
8:35 PM,41.5,30.0,64,30.31,7.0,South,3.5,-,N/A,,Clear,170,2013-11-11 02:35:00
8:55 PM,42.1,29.8,62,30.31,10.0,Calm,Calm,-,N/A,,Clear,0,2013-11-11 02:55:00
9:15 PM,41.7,29.7,62,30.30,10.0,SE,3.5,-,N/A,,Clear,140,2013-11-11 03:15:00
9:35 PM,38.7,30.0,71,30.29,10.0,SE,4.6,-,N/A,,Clear,140,2013-11-11 03:35:00
9:55 PM,37.9,31.5,77,30.29,10.0,Calm,Calm,-,N/A,,Clear,0,2013-11-11 03:55:00
10:15 PM,40.5,30.7,68,30.29,10.0,Calm,Calm,-,N/A,,Scattered Clouds,0,2013-11-11 04:15:00
10:35 PM,39.2,31.1,73,30.29,10.0,Calm,Calm,-,N/A,,Mostly Cloudy,0,2013-11-11 04:35:00
10:55 PM,39.0,31.8,75,30.28,10.0,Calm,Calm,-,N/A,,Overcast,0,2013-11-11 04:55:00
11:15 PM,38.3,32.7,80,30.28,10.0,Calm,Calm,-,N/A,,Overcast,0,2013-11-11 05:15:00
11:35 PM,39.2,32.4,76,30.28,5.0,Calm,Calm,-,N/A,,Haze,0,2013-11-11 05:35:00
11:55 PM,41.0,32.0,70,30.27,7.0,South,4.6,-,N/A,,Overcast,190,2013-11-11 05:55:00